Teterboro, NJ

1:16 AM EST on November 20, 2019 (GMT -0500)
Teterboro

Weather History for KTEB - September, 2019

Change the Weather History Date:

Friday, September 13, 2019

  Actual Average Record
Temperature  
Mean Temperature 64 °F -  
Max Temperature 71 °F 77 °F 95 °F (2005)
Min Temperature 57 °F 58 °F 48 °F (1992)
Degree Days  
Heating Degree Days 1    
Growing Degree Days 14 (Base 50)    
Moisture  
Dew Point 50 °F    
Average Humidity 62    
Maximum Humidity 78    
Minimum Humidity 42    
Precipitation  
Precipitation 0.00 in - - ()
Sea Level Pressure  
Sea Level Pressure 30.41 in    
Wind  
Wind Speed 7 mph ()    
Max Wind Speed 14 mph    
Max Gust Speed 23 mph    
Visibility 10.0 miles    
Events      
Averages and records for this station are not official NWS values.
T = Trace of Precipitation, MM = Missing Value Source: Averaged Metar Reports

Daily Weather History Graph

Daily Weather History Graph

Search for Another Location

Airport or City:

Astronomy

Sep. 13, 2019 Rise Set
Actual Time 6:34 AM EDT 7:09 PM EDT
Civil Twilight 6:07 AM EDT 7:36 PM EDT
Nautical Twilight 5:34 AM EDT 8:09 PM EDT
Astronomical Twilight 5:00 AM EDT 8:42 PM EDT
Moon 7:21 PM EDT (9/13) 5:48 AM EDT (9/13)
Length of Visible Light 13h 29m
Length of Day
12h 34m
Full, 100% of the Moon is Illuminated
Sep 13
Full
Sep 14
Full
Sep 21
Last Quarter
Sep 28
New
Oct 5
First Quarter

Hourly Weather History & Observations

Time (EDT) Temp. Dew Point Humidity Pressure Visibility Wind Dir Wind Speed Gust Speed Precip Events Conditions
12:51 AM 63.0 °F 55.0 °F 75% 30.30 in 10.0 mi NE 6.9 mph - N/A   Overcast
1:51 AM 62.1 °F 53.1 °F 72% 30.31 in 10.0 mi NE 5.8 mph - N/A   Overcast
2:51 AM 61.0 °F 52.0 °F 72% 30.32 in 10.0 mi NNE 4.6 mph - N/A   Scattered Clouds
3:51 AM 59.0 °F 52.0 °F 78% 30.33 in 10.0 mi NNE 4.6 mph - N/A   Clear
4:51 AM 59.0 °F 52.0 °F 78% 30.35 in 10.0 mi NNE 3.5 mph - N/A   Clear
5:51 AM 57.9 °F 51.1 °F 78% 30.37 in 10.0 mi NNE 4.6 mph - N/A   Clear
6:51 AM 57.9 °F 51.1 °F 78% 30.39 in 10.0 mi NNE 4.6 mph - N/A   Clear
7:51 AM 60.1 °F 51.1 °F 72% 30.41 in 10.0 mi NNE 6.9 mph - N/A   Clear
8:51 AM 63.0 °F 50.0 °F 63% 30.45 in 10.0 mi East 9.2 mph - N/A   Clear
9:51 AM 64.9 °F 51.1 °F 61% 30.46 in 10.0 mi ENE 9.2 mph 16.1 mph N/A   Partly Cloudy
10:51 AM 66.0 °F 51.1 °F 59% 30.46 in 10.0 mi East 9.2 mph - N/A   Scattered Clouds
11:51 AM 66.9 °F 52.0 °F 59% 30.46 in 10.0 mi ENE 9.2 mph 18.4 mph N/A   Mostly Cloudy
12:51 PM 70.0 °F 52.0 °F 53% 30.45 in 10.0 mi East 10.4 mph - N/A   Scattered Clouds
1:51 PM 70.0 °F 51.1 °F 51% 30.45 in 10.0 mi ESE 9.2 mph - N/A   Overcast
2:51 PM 70.0 °F 51.1 °F 51% 30.44 in 10.0 mi East 9.2 mph - N/A   Overcast
4:51 PM 71.1 °F 46.9 °F 42% 30.43 in 10.0 mi SSE 13.8 mph 19.6 mph N/A   Mostly Cloudy
5:51 PM 68.0 °F 50.0 °F 52% 30.44 in 10.0 mi SE 13.8 mph - N/A   Scattered Clouds
6:51 PM 68.0 °F 48.0 °F 49% 30.43 in 10.0 mi SSE 12.7 mph 23.0 mph N/A   Overcast
7:51 PM 66.0 °F 46.9 °F 50% 30.42 in 10.0 mi SSE 10.4 mph - N/A   Overcast
8:51 PM 64.9 °F 46.9 °F 52% 30.43 in 10.0 mi SE 11.5 mph - N/A   Clear
9:51 PM 64.0 °F 48.0 °F 56% 30.43 in 10.0 mi SE 6.9 mph - N/A   Mostly Cloudy
10:51 PM 64.0 °F 48.9 °F 58% 30.42 in 10.0 mi SE 8.1 mph - N/A   Overcast
11:51 PM 64.0 °F 48.9 °F 58% 30.40 in 10.0 mi SSE 6.9 mph - N/A   Overcast